| time (UTC) | temp F | wind direction | speed knots | gust knots | rain 1hr in | rain 24hr in | rain mn in | humidity % | barometer mb |
| 20260505041517 | 62 | 296 | 1.7 | 3.5 | 0.00 | 0.00 | 0.00 | 67 | 1016.3 |
| 20260505040520 | 63 | 328 | 0.9 | 2.6 | 0.00 | 0.00 | 0.00 | 67 | 1016.4 |
| 20260505035538 | 63 | 303 | 0.9 | 5.2 | 0.00 | 0.00 | 0.00 | 65 | 1016.3 |
| 20260505034518 | 63 | 333 | 0.9 | 2.6 | 0.00 | 0.00 | 0.00 | 65 | 1016.3 |
| 20260505033518 | 64 | 308 | 0.9 | 3.5 | 0.00 | 0.00 | 0.00 | 64 | 1016.2 |
| 20260505032516 | 64 | 266 | 1.7 | 5.2 | 0.00 | 0.00 | 0.00 | 63 | 1016.2 |
| 20260505031516 | 64 | 258 | 1.7 | 9.6 | 0.00 | 0.00 | 0.00 | 62 | 1016.2 |
| 20260505030515 | 65 | 264 | 1.7 | 7.0 | 0.00 | 0.00 | 0.00 | 62 | 1016.2 |
| 20260505025515 | 65 | 269 | 1.7 | 6.1 | 0.00 | 0.00 | 0.00 | 62 | 1016.2 |
| 20260505024515 | 65 | 276 | 1.7 | 6.1 | 0.00 | 0.00 | 0.00 | 62 | 1016.2 |
| 20260505023516 | 66 | 255 | 1.7 | 4.3 | 0.00 | 0.00 | 0.00 | 61 | 1016.1 |
| 20260505022516 | 66 | 256 | 0.9 | 5.2 | 0.00 | 0.00 | 0.00 | 61 | 1016.1 |
| 20260505021516 | 66 | 250 | 1.7 | 9.6 | 0.00 | 0.00 | 0.00 | 61 | 1016.0 |
| 20260505020516 | 67 | 262 | 0.9 | 5.2 | 0.00 | 0.00 | 0.00 | 61 | 1016.0 |
| 20260505015517 | 67 | 252 | 0.9 | 6.1 | 0.00 | 0.00 | 0.00 | 61 | 1015.9 |
| 20260505014537 | 68 | 256 | 0.9 | 4.3 | 0.00 | 0.00 | 0.00 | 60 | 1015.8 |
| 20260505013517 | 68 | 257 | 0.9 | 6.1 | 0.00 | 0.00 | 0.00 | 58 | 1015.7 |
| 20260505012517 | 69 | 257 | 1.7 | 4.3 | 0.00 | 0.00 | 0.00 | 56 | 1015.4 |
| 20260505011517 | 69 | 251 | 1.7 | 5.2 | 0.00 | 0.00 | 0.00 | 53 | 1015.2 |
| 20260505010538 | 68 | 278 | 0.9 | 3.5 | 0.00 | 0.00 | 0.00 | 50 | 1015.1 |
| 20260505005537 | 68 | 286 | 0.0 | 2.6 | 0.00 | 0.00 | 0.00 | 49 | 1015.0 |
| 20260505004558 | 68 | 268 | 0.9 | 2.6 | 0.00 | 0.00 | 0.00 | 49 | 1014.8 |
| 20260505003538 | 69 | 291 | 0.0 | 1.7 | 0.00 | 0.00 | 0.00 | 48 | 1014.8 |
| 20260505002518 | 70 | 274 | 0.0 | 1.7 | 0.00 | 0.00 | 0.00 | 46 | 1014.8 |
| 20260505001518 | 71 | 275 | 0.0 | 2.6 | 0.00 | 0.00 | 0.00 | 45 | 1014.7 |
| 20260505000518 | 72 | 264 | 0.0 | 3.5 | 0.00 | 0.00 | 0.00 | 44 | 1014.6 |
| 20260504235515 | 73 | 272 | 0.9 | 3.5 | 0.00 | 0.00 | 0.00 | 42 | 1014.5 |
| 20260504234515 | 73 | 265 | 0.9 | 4.3 | 0.00 | 0.00 | 0.00 | 41 | 1014.3 |
| 20260504233516 | 74 | 255 | 0.9 | 4.3 | 0.00 | 0.00 | 0.00 | 41 | 1014.2 |
| 20260504232516 | 75 | 234 | 0.9 | 2.6 | 0.00 | 0.00 | 0.00 | 40 | 1014.1 |
| 20260504231516 | 75 | 251 | 0.9 | 3.5 | 0.00 | 0.00 | 0.00 | 39 | 1014.0 |
| 20260504230517 | 76 | 249 | 1.7 | 7.0 | 0.00 | 0.00 | 0.00 | 38 | 1013.9 |
| 20260504225516 | 76 | 245 | 0.9 | 3.5 | 0.00 | 0.00 | 0.00 | 39 | 1013.9 |
| 20260504224516 | 77 | 244 | 1.7 | 4.3 | 0.00 | 0.00 | 0.00 | 37 | 1013.9 |
| 20260504223557 | 78 | 249 | 1.7 | 5.2 | 0.00 | 0.00 | 0.00 | 37 | 1013.8 |
| 20260504222517 | 78 | 241 | 1.7 | 6.1 | 0.00 | 0.00 | 0.00 | 37 | 1013.8 |
| 20260504221518 | 79 | 246 | 2.6 | 6.1 | 0.00 | 0.00 | 0.00 | 36 | 1013.7 |
| 20260504220537 | 79 | 239 | 1.7 | 4.3 | 0.00 | 0.00 | 0.00 | 35 | 1013.8 |
| 20260504215537 | 80 | 243 | 2.6 | 7.0 | 0.00 | 0.00 | 0.00 | 35 | 1013.6 |
| 20260504214517 | 80 | 238 | 2.6 | 8.7 | 0.00 | 0.00 | 0.00 | 35 | 1013.5 |
| 20260504213517 | 80 | 241 | 1.7 | 5.2 | 0.00 | 0.00 | 0.00 | 33 | 1013.5 |
| 20260504212538 | 80 | 256 | 1.7 | 4.3 | 0.00 | 0.00 | 0.00 | 33 | 1013.6 |
| 20260504211518 | 80 | 234 | 1.7 | 7.8 | 0.00 | 0.00 | 0.00 | 32 | 1013.5 |
| 20260504210515 | 80 | 253 | 3.5 | 7.8 | 0.00 | 0.00 | 0.00 | 31 | 1013.6 |
| 20260504205515 | 80 | 236 | 1.7 | 5.2 | 0.00 | 0.00 | 0.00 | 31 | 1013.6 |
| 20260504204515 | 81 | 247 | 2.6 | 8.7 | 0.00 | 0.00 | 0.00 | 31 | 1013.6 |
| 20260504203516 | 81 | 230 | 1.7 | 4.3 | 0.00 | 0.00 | 0.00 | 31 | 1013.7 |
| 20260504202516 | 81 | 218 | 1.7 | 6.1 | 0.00 | 0.00 | 0.00 | 31 | 1013.8 |
| 20260504201516 | 81 | 246 | 2.6 | 7.0 | 0.00 | 0.00 | 0.00 | 30 | 1014.0 |
| 20260504200516 | 80 | 249 | 1.7 | 5.2 | 0.00 | 0.00 | 0.00 | 31 | 1013.9 |
| 20260504195516 | 80 | 252 | 2.6 | 7.8 | 0.00 | 0.00 | 0.00 | 31 | 1014.0 |
| 20260504194516 | 80 | 233 | 1.7 | 6.1 | 0.00 | 0.00 | 0.00 | 31 | 1013.9 |
| 20260504193517 | 80 | 243 | 2.6 | 7.0 | 0.00 | 0.00 | 0.00 | 31 | 1014.0 |
| 20260504192516 | 80 | 253 | 1.7 | 5.2 | 0.00 | 0.00 | 0.00 | 31 | 1014.2 |
| 20260504191517 | 79 | 243 | 1.7 | 5.2 | 0.00 | 0.00 | 0.00 | 34 | 1014.3 |
| 20260504190517 | 79 | 247 | 3.5 | 7.0 | 0.00 | 0.00 | 0.00 | 33 | 1014.6 |
| 20260504185518 | 79 | 229 | 1.7 | 4.3 | 0.00 | 0.00 | 0.00 | 35 | 1014.5 |
| 20260504184538 | 79 | 227 | 2.6 | 7.8 | 0.00 | 0.00 | 0.00 | 34 | 1014.5 |
| 20260504183538 | 78 | 239 | 3.5 | 6.1 | 0.00 | 0.00 | 0.00 | 33 | 1014.6 |
| 20260504182538 | 78 | 247 | 3.5 | 7.8 | 0.00 | 0.00 | 0.00 | 35 | 1014.7 |
| 20260504181518 | 78 | 246 | 3.5 | 7.0 | 0.00 | 0.00 | 0.00 | 35 | 1014.8 |
| 20260504180515 | 78 | 233 | 1.7 | 7.0 | 0.00 | 0.00 | 0.00 | 36 | 1014.7 |
| 20260504175515 | 77 | 241 | 2.6 | 6.1 | 0.00 | 0.00 | 0.00 | 36 | 1014.9 |
| 20260504174516 | 77 | 244 | 3.5 | 8.7 | 0.00 | 0.00 | 0.00 | 37 | 1015.1 |
| 20260504173516 | 76 | 250 | 1.7 | 4.3 | 0.00 | 0.00 | 0.00 | 39 | 1015.2 |
| 20260504172516 | 76 | 254 | 3.5 | 7.8 | 0.00 | 0.00 | 0.00 | 38 | 1015.4 |
| 20260504171515 | 75 | 333 | 1.7 | 4.3 | 0.00 | 0.00 | 0.00 | 39 | 1015.5 |
| 20260504170516 | 76 | 248 | 3.5 | 7.8 | 0.00 | 0.00 | 0.00 | 39 | 1015.5 |
| 20260504150538 | 69 | 249 | 1.7 | 6.1 | 0.00 | 0.00 | 0.00 | 53 | 1016.5 |
| 20260504140516 | 64 | 272 | 0.9 | 3.5 | 0.00 | 0.00 | 0.00 | 65 | 1016.6 |
| 20260504130537 | 59 | 273 | 1.7 | 5.2 | 0.00 | 0.00 | 0.00 | 74 | 1017.1 |
| 20260504110536 | 45 | 64 | 0.0 | 0.9 | 0.00 | 0.00 | 0.00 | 96 | 1017.8 |
| 20260504100516 | 44 | 51 | 0.0 | 0.0 | 0.00 | 0.01 | 0.00 | 95 | 1017.9 |
| 20260504081518 | 46 | 106 | 0.0 | 0.0 | 0.00 | 0.01 | 0.00 | 90 | 1017.8 |
| 20260504080515 | 46 | 0.0 | 0.0 | 0.00 | 0.01 | 0.00 | 89 | 1017.8 | |
| 20260504050518 | 43 | 104 | 0.0 | 0.0 | 0.00 | 0.01 | 0.00 | 89 | 1018.3 |
| 20260504045518 | 44 | 46 | 0.0 | 0.9 | 0.00 | 0.01 | 0.00 | 88 | 1018.4 |
| 20260504044515 | 44 | 0.0 | 0.0 | 0.00 | 0.01 | 0.00 | 87 | 1018.4 | |
| 20260504043535 | 44 | 348 | 0.0 | 0.9 | 0.00 | 0.01 | 0.00 | 86 | 1018.4 |
| 20260504042515 | 44 | 12 | 0.0 | 0.9 | 0.00 | 0.01 | 0.00 | 86 | 1018.4 |